Year,Month,Day,Hour,Minute,Value (Times are PST for temperature in C)
2015,06,17,00,00,13.20
2015,06,17,00,01,13.20
2015,06,17,00,02,13.20
2015,06,17,00,03,13.20
2015,06,17,00,04,13.20
2015,06,17,00,05,13.20
2015,06,17,00,06,13.20
2015,06,17,00,07,13.10
2015,06,17,00,08,13.10
2015,06,17,00,09,13.10
2015,06,17,00,10,13.10
2015,06,17,00,11,13.10
2015,06,17,00,12,13.10
2015,06,17,00,13,13.00
2015,06,17,00,14,13.00
2015,06,17,00,15,13.00
2015,06,17,00,16,13.00
2015,06,17,00,17,13.00
2015,06,17,00,18,13.00
2015,06,17,00,19,13.00
2015,06,17,00,20,12.90
2015,06,17,00,21,12.90
2015,06,17,00,22,12.90
2015,06,17,00,23,12.90
2015,06,17,00,24,12.90
2015,06,17,00,25,12.90
2015,06,17,00,26,12.90
2015,06,17,00,27,12.90
2015,06,17,00,28,12.90
2015,06,17,00,29,12.90
2015,06,17,00,30,12.90
2015,06,17,00,31,12.90
2015,06,17,00,32,12.90
2015,06,17,00,33,12.90
2015,06,17,00,34,12.90
2015,06,17,00,35,12.90
2015,06,17,00,36,12.90
2015,06,17,00,37,12.90
2015,06,17,00,38,12.90
2015,06,17,00,39,12.90
2015,06,17,00,40,12.90
2015,06,17,00,41,12.90
2015,06,17,00,42,12.90
2015,06,17,00,43,12.90
2015,06,17,00,44,12.90
2015,06,17,00,45,12.90
2015,06,17,00,46,12.90
2015,06,17,00,47,12.90
2015,06,17,00,48,12.90
2015,06,17,00,49,12.90
2015,06,17,00,50,12.90
2015,06,17,00,51,12.90
2015,06,17,00,52,12.90
2015,06,17,00,53,12.90
2015,06,17,00,54,12.90
2015,06,17,00,55,12.80
2015,06,17,00,56,12.80
2015,06,17,00,57,12.80
2015,06,17,00,58,12.80
2015,06,17,00,59,12.80
2015,06,17,01,00,12.80
2015,06,17,01,01,12.80
2015,06,17,01,02,12.80
2015,06,17,01,03,12.80
2015,06,17,01,04,12.80
2015,06,17,01,05,12.80
2015,06,17,01,06,12.80
2015,06,17,01,07,12.80
2015,06,17,01,08,12.80
2015,06,17,01,09,12.80
2015,06,17,01,10,12.80
2015,06,17,01,11,12.80
2015,06,17,01,12,12.80
2015,06,17,01,13,12.80
2015,06,17,01,14,12.80
2015,06,17,01,15,12.80
2015,06,17,01,16,12.80
2015,06,17,01,17,12.80
2015,06,17,01,18,12.80
2015,06,17,01,19,12.80
2015,06,17,01,20,12.80
2015,06,17,01,21,12.80
2015,06,17,01,22,12.80
2015,06,17,01,23,12.80
2015,06,17,01,24,12.80
2015,06,17,01,25,12.80
2015,06,17,01,26,12.80
2015,06,17,01,27,12.80
2015,06,17,01,28,12.80
2015,06,17,01,29,12.80
2015,06,17,01,30,12.80
2015,06,17,01,31,12.80
2015,06,17,01,32,12.80
2015,06,17,01,33,12.80
2015,06,17,01,34,12.80
2015,06,17,01,35,12.80
2015,06,17,01,36,12.80
2015,06,17,01,37,12.80
2015,06,17,01,38,12.80
2015,06,17,01,39,12.80
2015,06,17,01,40,12.80
2015,06,17,01,41,12.80
2015,06,17,01,42,12.80
2015,06,17,01,43,12.80
2015,06,17,01,44,12.80
2015,06,17,01,45,12.80
2015,06,17,01,46,12.80
2015,06,17,01,47,12.80
2015,06,17,01,48,12.80
2015,06,17,01,49,12.80
2015,06,17,01,50,12.80
2015,06,17,01,51,12.80
2015,06,17,01,52,12.80
2015,06,17,01,53,12.80
2015,06,17,01,54,12.80
2015,06,17,01,55,12.80
2015,06,17,01,56,12.80
2015,06,17,01,57,12.80
2015,06,17,01,58,12.70
2015,06,17,01,59,12.70
2015,06,17,02,00,12.70
2015,06,17,02,01,12.70
2015,06,17,02,02,12.70
2015,06,17,02,03,12.70
2015,06,17,02,04,12.70
2015,06,17,02,05,12.60
2015,06,17,02,06,12.60
2015,06,17,02,07,12.60
2015,06,17,02,08,12.60
2015,06,17,02,09,12.60
2015,06,17,02,10,12.60
2015,06,17,02,11,12.50
2015,06,17,02,12,12.50
2015,06,17,02,13,12.50
2015,06,17,02,14,12.50
2015,06,17,02,15,12.50
2015,06,17,02,16,12.50
2015,06,17,02,17,12.50
2015,06,17,02,18,12.50
2015,06,17,02,19,12.50
2015,06,17,02,20,12.50
2015,06,17,02,21,12.40
2015,06,17,02,22,12.40
2015,06,17,02,23,12.40
2015,06,17,02,24,12.40
2015,06,17,02,25,12.40
2015,06,17,02,26,12.30
2015,06,17,02,27,12.30
2015,06,17,02,28,12.30
2015,06,17,02,29,12.30
2015,06,17,02,30,12.30
2015,06,17,02,31,12.30
2015,06,17,02,32,12.30
2015,06,17,02,33,12.30
2015,06,17,02,34,12.30
2015,06,17,02,35,12.30
2015,06,17,02,36,12.20
2015,06,17,02,37,12.20
2015,06,17,02,38,12.20
2015,06,17,02,39,12.10
2015,06,17,02,40,12.10
2015,06,17,02,41,12.10
2015,06,17,02,42,12.10
2015,06,17,02,43,12.00
2015,06,17,02,44,12.00
2015,06,17,02,45,12.00
2015,06,17,02,46,12.00
2015,06,17,02,47,12.00
2015,06,17,02,48,11.90
2015,06,17,02,49,11.90
2015,06,17,02,50,11.90
2015,06,17,02,51,11.90
2015,06,17,02,52,11.90
2015,06,17,02,53,11.90
2015,06,17,02,54,11.80
2015,06,17,02,55,11.80
2015,06,17,02,56,11.80
2015,06,17,02,57,11.80
2015,06,17,02,58,11.80
2015,06,17,02,59,11.80
2015,06,17,03,00,11.80
2015,06,17,03,01,11.80
2015,06,17,03,02,11.80
2015,06,17,03,03,11.70
2015,06,17,03,04,11.70
2015,06,17,03,05,11.70
2015,06,17,03,06,11.60
2015,06,17,03,07,11.60
2015,06,17,03,08,11.60
2015,06,17,03,09,11.60
2015,06,17,03,10,11.60
2015,06,17,03,11,11.50
2015,06,17,03,12,11.40
2015,06,17,03,13,11.40
2015,06,17,03,14,11.40
2015,06,17,03,15,11.40
2015,06,17,03,16,11.40
2015,06,17,03,17,11.40
2015,06,17,03,18,11.40
2015,06,17,03,19,11.30
2015,06,17,03,20,11.30
2015,06,17,03,21,11.30
2015,06,17,03,22,11.30
2015,06,17,03,23,11.30
2015,06,17,03,24,11.30
2015,06,17,03,25,11.30
2015,06,17,03,26,11.30
2015,06,17,03,27,11.30
2015,06,17,03,28,11.20
2015,06,17,03,29,11.20
2015,06,17,03,30,11.20
2015,06,17,03,31,11.20
2015,06,17,03,32,11.10
2015,06,17,03,33,11.10
2015,06,17,03,34,11.10
2015,06,17,03,35,11.10
2015,06,17,03,36,11.10
2015,06,17,03,37,11.10
2015,06,17,03,38,11.10
2015,06,17,03,39,11.10
2015,06,17,03,40,11.00
2015,06,17,03,41,10.90
2015,06,17,03,42,10.90
2015,06,17,03,43,10.90
2015,06,17,03,44,10.90
2015,06,17,03,45,10.90
2015,06,17,03,46,10.90
2015,06,17,03,47,10.90
2015,06,17,03,48,10.90
2015,06,17,03,49,10.90
2015,06,17,03,50,10.80
2015,06,17,03,51,10.80
2015,06,17,03,52,10.80
2015,06,17,03,53,10.70
2015,06,17,03,54,10.70
2015,06,17,03,55,10.70
2015,06,17,03,56,10.70
2015,06,17,03,57,10.60
2015,06,17,03,58,10.60
2015,06,17,03,59,10.60
2015,06,17,04,00,10.60
2015,06,17,04,01,10.60
2015,06,17,04,02,10.60
2015,06,17,04,03,10.60
2015,06,17,04,04,10.60
2015,06,17,04,05,10.60
2015,06,17,04,06,10.60
2015,06,17,04,07,10.60
2015,06,17,04,08,10.60
2015,06,17,04,09,10.60
2015,06,17,04,10,10.60
2015,06,17,04,11,10.60
2015,06,17,04,12,10.60
2015,06,17,04,13,10.60
2015,06,17,04,14,10.60
2015,06,17,04,15,10.60
2015,06,17,04,16,10.60
2015,06,17,04,17,10.60
2015,06,17,04,18,10.60
2015,06,17,04,19,10.60
2015,06,17,04,20,10.60
2015,06,17,04,21,10.60
2015,06,17,04,22,10.60
2015,06,17,04,23,10.60
2015,06,17,04,24,10.60
2015,06,17,04,25,10.60
2015,06,17,04,26,10.60
2015,06,17,04,27,10.60
2015,06,17,04,28,10.60
2015,06,17,04,29,10.60
2015,06,17,04,30,10.60
2015,06,17,04,31,10.50
2015,06,17,04,32,10.40
2015,06,17,04,33,10.40
2015,06,17,04,34,10.40
2015,06,17,04,35,10.40
2015,06,17,04,36,10.40
2015,06,17,04,37,10.40
2015,06,17,04,38,10.40
2015,06,17,04,39,10.40
2015,06,17,04,40,10.40
2015,06,17,04,41,10.30
2015,06,17,04,42,10.30
2015,06,17,04,43,10.30
2015,06,17,04,44,10.30
2015,06,17,04,45,10.20
2015,06,17,04,46,10.20
2015,06,17,04,47,10.20
2015,06,17,04,48,10.20
2015,06,17,04,49,10.20
2015,06,17,04,50,10.20
2015,06,17,04,51,10.20
2015,06,17,04,52,10.20
2015,06,17,04,53,10.20
2015,06,17,04,54,10.10
2015,06,17,04,55,10.10
2015,06,17,04,56,10.10
2015,06,17,04,57,10.10
2015,06,17,04,58,10.10
2015,06,17,04,59,10.10
2015,06,17,05,00,10.10
2015,06,17,05,01,10.10
2015,06,17,05,02,10.10
2015,06,17,05,03,10.10
2015,06,17,05,04,10.00
2015,06,17,05,05,9.90
2015,06,17,05,06,9.90
2015,06,17,05,07,9.90
2015,06,17,05,08,9.90
2015,06,17,05,09,9.90
2015,06,17,05,10,9.90
2015,06,17,05,11,9.90
2015,06,17,05,12,9.90
2015,06,17,05,13,9.90
2015,06,17,05,14,9.90
2015,06,17,05,15,9.90
2015,06,17,05,16,9.90
2015,06,17,05,17,9.90
2015,06,17,05,18,9.90
2015,06,17,05,19,9.90
2015,06,17,05,20,9.90
2015,06,17,05,21,9.90
2015,06,17,05,22,9.90
2015,06,17,05,23,9.90
2015,06,17,05,24,9.90
2015,06,17,05,25,9.90
2015,06,17,05,26,9.90
2015,06,17,05,27,9.90
2015,06,17,05,28,9.90
2015,06,17,05,29,9.90
2015,06,17,05,30,9.90
2015,06,17,05,31,9.90
2015,06,17,05,32,9.90
2015,06,17,05,33,9.90
2015,06,17,05,34,9.90
2015,06,17,05,35,9.90
2015,06,17,05,36,9.90
2015,06,17,05,37,9.90
2015,06,17,05,38,9.90
2015,06,17,05,39,9.90
2015,06,17,05,40,9.90
2015,06,17,05,41,9.90
2015,06,17,05,42,9.90
2015,06,17,05,43,9.90
2015,06,17,05,44,10.00
2015,06,17,05,45,10.10
2015,06,17,05,46,10.10
2015,06,17,05,47,10.10
2015,06,17,05,48,10.20
2015,06,17,05,49,10.20
2015,06,17,05,50,10.20
2015,06,17,05,51,10.30
2015,06,17,05,52,10.30
2015,06,17,05,53,10.40
2015,06,17,05,54,10.40
2015,06,17,05,55,10.40
2015,06,17,05,56,10.50
2015,06,17,05,57,10.60
2015,06,17,05,58,10.60
2015,06,17,05,59,10.60
2015,06,17,06,00,10.60
2015,06,17,06,01,10.70
2015,06,17,06,02,10.80
2015,06,17,06,03,10.90
2015,06,17,06,04,11.00
2015,06,17,06,05,11.10
2015,06,17,06,06,11.20
2015,06,17,06,07,11.20
2015,06,17,06,08,11.30
2015,06,17,06,09,11.30
2015,06,17,06,10,11.40
2015,06,17,06,11,11.40
2015,06,17,06,12,11.50
2015,06,17,06,13,11.60
2015,06,17,06,14,11.60
2015,06,17,06,15,11.70
2015,06,17,06,16,11.70
2015,06,17,06,17,11.80
2015,06,17,06,18,11.90
2015,06,17,06,19,12.00
2015,06,17,06,20,12.10
2015,06,17,06,21,12.20
2015,06,17,06,22,12.20
2015,06,17,06,23,12.30
2015,06,17,06,24,12.30
2015,06,17,06,25,12.40
2015,06,17,06,26,12.50
2015,06,17,06,27,12.50
2015,06,17,06,28,12.50
2015,06,17,06,29,12.60
2015,06,17,06,30,12.60
2015,06,17,06,31,12.60
2015,06,17,06,32,12.60
2015,06,17,06,33,12.60
2015,06,17,06,34,12.60
2015,06,17,06,35,12.70
2015,06,17,06,36,12.70
2015,06,17,06,37,12.80
2015,06,17,06,38,12.80
2015,06,17,06,39,12.90
2015,06,17,06,40,13.00
2015,06,17,06,41,13.10
2015,06,17,06,42,13.10
2015,06,17,06,43,13.20
2015,06,17,06,44,13.30
2015,06,17,06,45,13.30
2015,06,17,06,46,13.40
2015,06,17,06,47,13.40
2015,06,17,06,48,13.50
2015,06,17,06,49,13.50
2015,06,17,06,50,13.60
2015,06,17,06,51,13.60
2015,06,17,06,52,13.70
2015,06,17,06,53,13.80
2015,06,17,06,54,13.90
2015,06,17,06,55,14.00
2015,06,17,06,56,14.00
2015,06,17,06,57,14.20
2015,06,17,06,58,14.20
2015,06,17,06,59,14.30
2015,06,17,07,00,14.30
2015,06,17,07,01,14.30
2015,06,17,07,02,14.20
2015,06,17,07,03,14.20
2015,06,17,07,04,14.10
2015,06,17,07,05,14.00
2015,06,17,07,06,14.00
2015,06,17,07,07,13.90
2015,06,17,07,08,13.90
2015,06,17,07,09,13.80
2015,06,17,07,10,13.70
2015,06,17,07,11,13.70
2015,06,17,07,12,13.80
2015,06,17,07,13,13.90
2015,06,17,07,14,13.90
2015,06,17,07,15,13.90
2015,06,17,07,16,13.90
2015,06,17,07,17,13.90
2015,06,17,07,18,14.00
2015,06,17,07,19,14.00
2015,06,17,07,20,14.00
2015,06,17,07,21,14.10
2015,06,17,07,22,14.20
2015,06,17,07,23,14.40
2015,06,17,07,24,14.40
2015,06,17,07,25,14.50
2015,06,17,07,26,14.50
2015,06,17,07,27,14.50
2015,06,17,07,28,14.50
2015,06,17,07,29,14.50
2015,06,17,07,30,14.60
2015,06,17,07,31,14.60
2015,06,17,07,32,14.70
2015,06,17,07,33,14.80
2015,06,17,07,34,14.80
2015,06,17,07,35,14.90
2015,06,17,07,36,15.00
2015,06,17,07,37,15.10
2015,06,17,07,38,15.10
2015,06,17,07,39,15.20
2015,06,17,07,40,15.30
2015,06,17,07,41,15.20
2015,06,17,07,42,15.10
2015,06,17,07,43,15.10
2015,06,17,07,44,15.10
2015,06,17,07,45,15.10
2015,06,17,07,46,15.20
2015,06,17,07,47,15.40
2015,06,17,07,48,15.50
2015,06,17,07,49,15.70
2015,06,17,07,50,15.80
2015,06,17,07,51,15.90
2015,06,17,07,52,15.90
2015,06,17,07,53,15.90
2015,06,17,07,54,15.90
2015,06,17,07,55,15.80
2015,06,17,07,56,15.80
2015,06,17,07,57,15.80
2015,06,17,07,58,15.80
2015,06,17,07,59,15.70
2015,06,17,08,00,15.70
2015,06,17,08,01,15.80
2015,06,17,08,02,15.80
2015,06,17,08,03,15.90
2015,06,17,08,04,16.00
2015,06,17,08,05,16.10
2015,06,17,08,06,16.30
2015,06,17,08,07,16.30
2015,06,17,08,08,16.30
2015,06,17,08,09,16.20
2015,06,17,08,10,16.00
2015,06,17,08,11,15.90
2015,06,17,08,12,15.90
2015,06,17,08,13,15.90
2015,06,17,08,14,16.00
2015,06,17,08,15,16.20
2015,06,17,08,16,16.30
2015,06,17,08,17,16.30
2015,06,17,08,18,16.30
2015,06,17,08,19,16.30
2015,06,17,08,20,16.30
2015,06,17,08,21,16.30
2015,06,17,08,22,16.30
2015,06,17,08,23,16.30
2015,06,17,08,24,16.30
2015,06,17,08,25,16.30
2015,06,17,08,26,16.30
2015,06,17,08,27,16.30
2015,06,17,08,28,16.40
2015,06,17,08,29,16.40
2015,06,17,08,30,16.40
2015,06,17,08,31,16.40
2015,06,17,08,32,16.40
2015,06,17,08,33,16.40
2015,06,17,08,34,16.40
2015,06,17,08,35,16.30
2015,06,17,08,36,16.30
2015,06,17,08,37,16.30
2015,06,17,08,38,16.30
2015,06,17,08,39,16.30
2015,06,17,08,40,16.40
2015,06,17,08,41,16.40
2015,06,17,08,42,16.60
2015,06,17,08,43,16.70
2015,06,17,08,44,16.70
2015,06,17,08,45,16.70
2015,06,17,08,46,16.70
2015,06,17,08,47,16.60
2015,06,17,08,48,16.60
2015,06,17,08,49,16.60
2015,06,17,08,50,16.60
2015,06,17,08,51,16.60
2015,06,17,08,52,16.60
2015,06,17,08,53,16.60
2015,06,17,08,54,16.70
2015,06,17,08,55,16.90
2015,06,17,08,56,17.00
2015,06,17,08,57,17.10
2015,06,17,08,58,17.20
2015,06,17,08,59,17.30
2015,06,17,09,00,17.50
2015,06,17,09,01,17.60
2015,06,17,09,02,17.70
2015,06,17,09,03,17.60
2015,06,17,09,04,17.50
2015,06,17,09,05,17.50
2015,06,17,09,06,17.70
2015,06,17,09,07,17.80
2015,06,17,09,08,17.90
2015,06,17,09,09,17.90
2015,06,17,09,10,17.90
2015,06,17,09,11,17.80
2015,06,17,09,12,17.80
2015,06,17,09,13,17.80
2015,06,17,09,14,17.80
2015,06,17,09,15,17.80
2015,06,17,09,16,17.90
2015,06,17,09,17,17.90
2015,06,17,09,18,17.80
2015,06,17,09,19,17.70
2015,06,17,09,20,17.60
2015,06,17,09,21,17.50
2015,06,17,09,22,17.30
2015,06,17,09,23,17.30
2015,06,17,09,24,17.40
2015,06,17,09,25,17.60
2015,06,17,09,26,17.70
2015,06,17,09,27,17.80
2015,06,17,09,28,17.90
2015,06,17,09,29,18.10
2015,06,17,09,30,18.10
2015,06,17,09,31,18.20
2015,06,17,09,32,18.30
2015,06,17,09,33,18.40
2015,06,17,09,34,18.50
2015,06,17,09,35,18.60
2015,06,17,09,36,18.60
2015,06,17,09,37,18.70
2015,06,17,09,38,18.70
2015,06,17,09,39,18.90
2015,06,17,09,40,18.90
2015,06,17,09,41,19.00
2015,06,17,09,42,19.10
2015,06,17,09,43,19.10
2015,06,17,09,44,19.10
2015,06,17,09,45,19.20
2015,06,17,09,46,19.30
2015,06,17,09,47,19.30
2015,06,17,09,48,19.40
2015,06,17,09,49,19.50
2015,06,17,09,50,19.50
2015,06,17,09,51,19.50
2015,06,17,09,52,19.60
2015,06,17,09,53,19.50
2015,06,17,09,54,19.50
2015,06,17,09,55,19.40
2015,06,17,09,56,19.40
2015,06,17,09,57,19.20
2015,06,17,09,58,19.10
2015,06,17,09,59,19.00
2015,06,17,10,00,18.90
2015,06,17,10,01,19.00
2015,06,17,10,02,19.10
2015,06,17,10,03,19.10
2015,06,17,10,04,19.10
2015,06,17,10,05,19.10
2015,06,17,10,06,19.10
2015,06,17,10,07,19.00
2015,06,17,10,08,18.90
2015,06,17,10,09,19.00
2015,06,17,10,10,19.10
2015,06,17,10,11,19.10
2015,06,17,10,12,19.10
2015,06,17,10,13,19.20
2015,06,17,10,14,19.20
2015,06,17,10,15,19.30
2015,06,17,10,16,19.30
2015,06,17,10,17,19.40
2015,06,17,10,18,19.40
2015,06,17,10,19,19.40
2015,06,17,10,20,19.20
2015,06,17,10,21,19.20
2015,06,17,10,22,19.30
2015,06,17,10,23,19.30
2015,06,17,10,24,19.40
2015,06,17,10,25,19.40
2015,06,17,10,26,19.60
2015,06,17,10,27,19.70
2015,06,17,10,28,19.80
2015,06,17,10,29,19.90
2015,06,17,10,30,19.90
2015,06,17,10,31,19.90
2015,06,17,10,32,20.00
2015,06,17,10,33,20.10
2015,06,17,10,34,20.20
2015,06,17,10,35,20.20
2015,06,17,10,36,20.20
2015,06,17,10,37,20.20
2015,06,17,10,38,20.20
2015,06,17,10,39,20.30
2015,06,17,10,40,20.40
2015,06,17,10,41,20.40
2015,06,17,10,42,20.40
2015,06,17,10,43,20.40
2015,06,17,10,44,20.30
2015,06,17,10,45,20.20
2015,06,17,10,46,20.20
2015,06,17,10,47,20.20
2015,06,17,10,48,20.20
2015,06,17,10,49,20.20
2015,06,17,10,50,20.20
2015,06,17,10,51,20.10
2015,06,17,10,52,20.10
2015,06,17,10,53,20.10
2015,06,17,10,54,20.20
2015,06,17,10,55,20.20
2015,06,17,10,56,20.20
2015,06,17,10,57,20.10
2015,06,17,10,58,20.10
2015,06,17,10,59,20.10
2015,06,17,11,00,20.20
2015,06,17,11,01,20.10
2015,06,17,11,02,20.10
2015,06,17,11,03,20.20
2015,06,17,11,04,20.20
2015,06,17,11,05,20.20
2015,06,17,11,06,20.20
2015,06,17,11,07,20.30
2015,06,17,11,08,20.30
2015,06,17,11,09,20.30
2015,06,17,11,10,20.30
2015,06,17,11,11,20.20
2015,06,17,11,12,20.40
2015,06,17,11,13,20.40
2015,06,17,11,14,20.40
2015,06,17,11,15,20.40
2015,06,17,11,16,20.30
2015,06,17,11,17,20.30
2015,06,17,11,18,20.40
2015,06,17,11,19,20.50
2015,06,17,11,20,20.60
2015,06,17,11,21,20.80
2015,06,17,11,22,20.90
2015,06,17,11,23,20.90
2015,06,17,11,24,21.00
2015,06,17,11,25,21.00
2015,06,17,11,26,20.80
2015,06,17,11,27,20.60
2015,06,17,11,28,20.50
2015,06,17,11,29,20.40
2015,06,17,11,30,20.30
2015,06,17,11,31,20.10
2015,06,17,11,32,19.90
2015,06,17,11,33,19.80
2015,06,17,11,34,19.90
2015,06,17,11,35,19.90
2015,06,17,11,36,19.80
2015,06,17,11,37,19.80
2015,06,17,11,38,19.80
2015,06,17,11,39,19.80
2015,06,17,11,40,19.90
2015,06,17,11,41,19.90
2015,06,17,11,42,19.90
2015,06,17,11,43,19.80
2015,06,17,11,44,19.70
2015,06,17,11,45,19.80
2015,06,17,11,46,19.80
2015,06,17,11,47,19.80
2015,06,17,11,48,19.70
2015,06,17,11,49,19.70
2015,06,17,11,50,19.70
2015,06,17,11,51,19.90
2015,06,17,11,52,19.80
2015,06,17,11,53,19.80
2015,06,17,11,54,19.70
2015,06,17,11,55,19.70
2015,06,17,11,56,19.70
2015,06,17,11,57,19.60
2015,06,17,11,58,19.50
2015,06,17,11,59,19.50
2015,06,17,12,00,19.50
2015,06,17,12,01,19.60
2015,06,17,12,02,19.70
2015,06,17,12,03,19.90
2015,06,17,12,04,19.90
2015,06,17,12,05,20.10
2015,06,17,12,06,20.20
2015,06,17,12,07,20.20
2015,06,17,12,08,20.30
2015,06,17,12,09,20.30
2015,06,17,12,10,20.30
2015,06,17,12,11,20.30
2015,06,17,12,12,20.20
2015,06,17,12,13,20.20
2015,06,17,12,14,20.20
2015,06,17,12,15,20.20
2015,06,17,12,16,20.20
2015,06,17,12,17,20.10
2015,06,17,12,18,20.10
2015,06,17,12,19,19.90
2015,06,17,12,20,19.80
2015,06,17,12,21,19.80
2015,06,17,12,22,19.90
2015,06,17,12,23,20.00
2015,06,17,12,24,20.20
2015,06,17,12,25,20.20
2015,06,17,12,26,20.20
2015,06,17,12,27,20.20
2015,06,17,12,28,20.10
2015,06,17,12,29,20.10
2015,06,17,12,30,20.10
2015,06,17,12,31,20.00
2015,06,17,12,32,20.00
2015,06,17,12,33,20.20
2015,06,17,12,34,20.40
2015,06,17,12,35,20.50
2015,06,17,12,36,20.50
2015,06,17,12,37,20.60
2015,06,17,12,38,20.50
2015,06,17,12,39,20.40
2015,06,17,12,40,20.30
2015,06,17,12,41,20.30
2015,06,17,12,42,20.30
2015,06,17,12,43,20.30
2015,06,17,12,44,20.20
2015,06,17,12,45,20.20
2015,06,17,12,46,20.30
2015,06,17,12,47,20.50
2015,06,17,12,48,20.60
2015,06,17,12,49,20.60
2015,06,17,12,50,20.70
2015,06,17,12,51,20.70
2015,06,17,12,52,20.60
2015,06,17,12,53,20.60
2015,06,17,12,54,20.70
2015,06,17,12,55,20.60
2015,06,17,12,56,20.30
2015,06,17,12,57,20.10
2015,06,17,12,58,20.10
2015,06,17,12,59,20.10
2015,06,17,13,00,20.10
2015,06,17,13,01,20.20
2015,06,17,13,02,20.20
2015,06,17,13,03,20.30
2015,06,17,13,04,20.30
2015,06,17,13,05,20.30
2015,06,17,13,06,20.30
2015,06,17,13,07,20.30
2015,06,17,13,08,20.40
2015,06,17,13,09,20.50
2015,06,17,13,10,20.50
2015,06,17,13,11,20.60
2015,06,17,13,12,20.80
2015,06,17,13,13,21.00
2015,06,17,13,14,21.00
2015,06,17,13,15,21.20
2015,06,17,13,16,21.30
2015,06,17,13,17,21.30
2015,06,17,13,18,21.30
2015,06,17,13,19,21.30
2015,06,17,13,20,21.20
2015,06,17,13,21,21.20
2015,06,17,13,22,21.00
2015,06,17,13,23,21.00
2015,06,17,13,24,20.90
2015,06,17,13,25,20.90
2015,06,17,13,26,20.90
2015,06,17,13,27,21.00
2015,06,17,13,28,21.10
2015,06,17,13,29,21.30
2015,06,17,13,30,21.30
2015,06,17,13,31,21.20
2015,06,17,13,32,21.10
2015,06,17,13,33,21.00
2015,06,17,13,34,21.00
2015,06,17,13,35,21.10
2015,06,17,13,36,21.10
2015,06,17,13,37,21.10
2015,06,17,13,38,21.10
2015,06,17,13,39,21.30
2015,06,17,13,40,21.40
2015,06,17,13,41,21.50
2015,06,17,13,42,21.60
2015,06,17,13,43,21.70
2015,06,17,13,44,21.80
2015,06,17,13,45,21.80
2015,06,17,13,46,21.80
2015,06,17,13,47,21.90
2015,06,17,13,48,21.90
2015,06,17,13,49,22.00
2015,06,17,13,50,22.00
2015,06,17,13,51,21.90
2015,06,17,13,52,21.90
2015,06,17,13,53,21.90
2015,06,17,13,54,21.70
2015,06,17,13,55,21.70
2015,06,17,13,56,21.70
2015,06,17,13,57,21.60
2015,06,17,13,58,21.50
2015,06,17,13,59,21.40
2015,06,17,14,00,21.50
2015,06,17,14,01,21.60
2015,06,17,14,02,21.70
2015,06,17,14,03,21.80
2015,06,17,14,04,21.80
2015,06,17,14,05,22.00
2015,06,17,14,06,22.00
2015,06,17,14,07,21.90
2015,06,17,14,08,21.80
2015,06,17,14,09,21.70
2015,06,17,14,10,21.80
2015,06,17,14,11,21.80
2015,06,17,14,12,21.80
2015,06,17,14,13,21.90
2015,06,17,14,14,22.00
2015,06,17,14,15,21.90
2015,06,17,14,16,22.00
2015,06,17,14,17,21.90
2015,06,17,14,18,21.90
2015,06,17,14,19,22.00
2015,06,17,14,20,22.00
2015,06,17,14,21,22.00
2015,06,17,14,22,22.00
2015,06,17,14,23,22.00
2015,06,17,14,24,21.90
2015,06,17,14,25,21.70
2015,06,17,14,26,21.60
2015,06,17,14,27,21.50
2015,06,17,14,28,21.40
2015,06,17,14,29,21.40
2015,06,17,14,30,21.30
2015,06,17,14,31,21.20
2015,06,17,14,32,21.00
2015,06,17,14,33,21.00
2015,06,17,14,34,21.00
2015,06,17,14,35,21.00
2015,06,17,14,36,20.90
2015,06,17,14,37,20.90
2015,06,17,14,38,21.00
2015,06,17,14,39,21.00
2015,06,17,14,40,21.00
2015,06,17,14,41,21.10
2015,06,17,14,42,21.30
2015,06,17,14,43,21.40
2015,06,17,14,44,21.50
2015,06,17,14,45,21.60
2015,06,17,14,46,21.70
2015,06,17,14,47,21.80
2015,06,17,14,48,21.80
2015,06,17,14,49,21.70
2015,06,17,14,50,21.60
2015,06,17,14,51,21.60
2015,06,17,14,52,21.60
2015,06,17,14,53,21.50
2015,06,17,14,54,21.50
2015,06,17,14,55,21.60
2015,06,17,14,56,21.70
2015,06,17,14,57,21.70
2015,06,17,14,58,21.50
2015,06,17,14,59,21.40
2015,06,17,15,00,21.50
2015,06,17,15,01,21.40
2015,06,17,15,02,21.40
2015,06,17,15,03,21.40
2015,06,17,15,04,21.40
2015,06,17,15,05,21.40
2015,06,17,15,06,21.50
2015,06,17,15,07,21.60
2015,06,17,15,08,21.70
2015,06,17,15,09,21.80
2015,06,17,15,10,21.90
2015,06,17,15,11,22.10
2015,06,17,15,12,22.30
2015,06,17,15,13,22.40
2015,06,17,15,14,22.50
2015,06,17,15,15,22.60
2015,06,17,15,16,22.70
2015,06,17,15,17,22.80
2015,06,17,15,18,22.90
2015,06,17,15,19,22.90
2015,06,17,15,20,22.80
2015,06,17,15,21,22.80
2015,06,17,15,22,22.80
2015,06,17,15,23,22.70
2015,06,17,15,24,22.60
2015,06,17,15,25,22.60
2015,06,17,15,26,22.70
2015,06,17,15,27,22.70
2015,06,17,15,28,22.60
2015,06,17,15,29,22.60
2015,06,17,15,30,22.50
2015,06,17,15,31,22.60
2015,06,17,15,32,22.60
2015,06,17,15,33,22.70
2015,06,17,15,34,22.80
2015,06,17,15,35,22.90
2015,06,17,15,36,22.80
2015,06,17,15,37,22.80
2015,06,17,15,38,22.80
2015,06,17,15,39,22.80
2015,06,17,15,40,22.80
2015,06,17,15,41,22.90
2015,06,17,15,42,22.90
2015,06,17,15,43,23.00
2015,06,17,15,44,23.10
2015,06,17,15,45,23.20
2015,06,17,15,46,23.20
2015,06,17,15,47,23.30
2015,06,17,15,48,23.30
2015,06,17,15,49,23.30
2015,06,17,15,50,23.20
2015,06,17,15,51,23.20
2015,06,17,15,52,23.20
2015,06,17,15,53,23.20
2015,06,17,15,54,23.20
2015,06,17,15,55,23.30
2015,06,17,15,56,23.50
2015,06,17,15,57,23.70
2015,06,17,15,58,23.90
2015,06,17,15,59,23.90
2015,06,17,16,00,24.00
2015,06,17,16,01,24.10
2015,06,17,16,02,23.90
2015,06,17,16,03,23.70
2015,06,17,16,04,23.60
2015,06,17,16,05,23.60
2015,06,17,16,06,23.70
2015,06,17,16,07,23.70
2015,06,17,16,08,23.70
2015,06,17,16,09,23.80
2015,06,17,16,10,23.90
2015,06,17,16,11,24.00
2015,06,17,16,12,24.10
2015,06,17,16,13,24.10
2015,06,17,16,14,24.10
2015,06,17,16,15,24.10
2015,06,17,16,16,24.10
2015,06,17,16,17,24.10
2015,06,17,16,18,24.20
2015,06,17,16,19,24.20
2015,06,17,16,20,24.20
2015,06,17,16,21,24.20
2015,06,17,16,22,24.20
2015,06,17,16,23,24.30
2015,06,17,16,24,24.30
2015,06,17,16,25,24.40
2015,06,17,16,26,24.40
2015,06,17,16,27,24.50
2015,06,17,16,28,24.50
2015,06,17,16,29,24.50
2015,06,17,16,30,24.50
2015,06,17,16,31,24.50
2015,06,17,16,32,24.50
2015,06,17,16,33,24.40
2015,06,17,16,34,24.40
2015,06,17,16,35,24.30
2015,06,17,16,36,24.10
2015,06,17,16,37,24.10
2015,06,17,16,38,24.00
2015,06,17,16,39,23.90
2015,06,17,16,40,23.80
2015,06,17,16,41,23.90
2015,06,17,16,42,23.90
2015,06,17,16,43,23.90
2015,06,17,16,44,23.80
2015,06,17,16,45,23.90
2015,06,17,16,46,24.00
2015,06,17,16,47,24.10
2015,06,17,16,48,24.10
2015,06,17,16,49,24.20
2015,06,17,16,50,24.30
2015,06,17,16,51,24.20
2015,06,17,16,52,24.30
2015,06,17,16,53,24.40
2015,06,17,16,54,24.50
2015,06,17,16,55,24.50
2015,06,17,16,56,24.60
2015,06,17,16,57,24.60
2015,06,17,16,58,24.60
2015,06,17,16,59,24.60
2015,06,17,17,00,24.60
2015,06,17,17,01,24.60
2015,06,17,17,02,24.60
2015,06,17,17,03,24.70
2015,06,17,17,04,24.70
2015,06,17,17,05,24.70
2015,06,17,17,06,24.50
2015,06,17,17,07,24.50
2015,06,17,17,08,24.50
2015,06,17,17,09,24.40
2015,06,17,17,10,24.30
2015,06,17,17,11,24.20
2015,06,17,17,12,24.10
2015,06,17,17,13,24.10
2015,06,17,17,14,24.30
2015,06,17,17,15,24.40
2015,06,17,17,16,24.50
2015,06,17,17,17,24.60
2015,06,17,17,18,24.70
2015,06,17,17,19,24.70
2015,06,17,17,20,24.70
2015,06,17,17,21,24.50